QPF
0.02 0.05 0.12 0.14 0.12 0.13 0.13 0.11 0.10 0.10 0.09 0.07 0.07 0.06 0.04 0.04 0.05 0.06 0.07 0.06 0.08 0.12 0.12 0.10 0.09 0.06 0.07 0.10 0.10 0.07 0.06 0.05 0.06 0.07 0.07 0.08 0.07 0.06 0.06 0.05 0.02 0.02 0.03
0.02 0.05 0.10 0.12 0.10 0.08 0.09 0.08 0.10 0.10 0.09 0.08 0.07 0.05 0.04 0.04 0.06 0.05 0.05 0.06 0.06 0.05 0.05 0.06 0.06 0.05 0.08 0.10 0.11 0.10 0.08 0.07 0.06 0.06 0.08 0.08 0.08 0.05 0.05 0.03 0.02 0.02 0.03
0.03 0.05 0.08 0.10 0.09 0.07 0.06 0.07 0.12 0.12 0.11 0.08 0.05 0.04 0.04 0.04 0.06 0.06 0.05 0.05 0.06 0.05 0.04 0.04 0.06 0.05 0.07 0.08 0.10 0.10 0.10 0.07 0.06 0.06 0.08 0.06 0.06 0.06 0.05 0.03 0.03 0.03 0.03
0.04 0.05 0.06 0.09 0.08 0.07 0.08 0.10 0.13 0.12 0.10 0.07 0.04 0.04 0.06 0.05 0.06 0.07 0.06 0.04 0.06 0.06 0.05 0.05 0.08 0.09 0.09 0.08 0.09 0.09 0.10 0.07 0.07 0.06 0.03 0.02 0.03 0.05 0.04 0.04 0.03 0.02 0.03
0.04 0.04 0.06 0.09 0.08 0.06 0.09 0.12 0.13 0.09 0.06 0.05 0.04 0.03 0.06 0.07 0.08 0.08 0.06 0.05 0.05 0.06 0.08 0.08 0.11 0.12 0.10 0.09 0.09 0.10 0.11 0.09 0.07 0.03 0.01 0.01 0.02 0.05 0.06 0.04 0.02 0.02 0.03
0.03 0.03 0.07 0.11 0.12 0.09 0.09 0.11 0.10 0.08 0.05 0.04 0.03 0.03 0.05 0.08 0.12 0.13 0.13 0.12 0.09 0.08 0.08 0.09 0.14 0.15 0.13 0.13 0.11 0.11 0.11 0.09 0.04 0.01 0.01 0.01 0.03 0.07 0.06 0.03 0.03 0.04 0.04
0.03 0.04 0.08 0.13 0.14 0.11 0.09 0.10 0.08 0.08 0.07 0.06 0.03 0.03 0.06 0.13 0.19 0.20 0.16 0.14 0.17 0.12 0.11 0.13 0.16 0.18 0.14 0.12 0.12 0.12 0.11 0.08 0.02 0.01 0.01 0.01 0.02 0.04 0.04 0.04 0.04 0.04 0.04
0.02 0.03 0.05 0.10 0.12 0.11 0.10 0.08 0.07 0.08 0.08 0.06 0.04 0.03 0.04 0.06 0.07 0.08 0.09 0.15 0.15 0.11 0.14 0.15 0.23 0.18 0.13 0.11 0.10 0.11 0.10 0.06 0.03 0.02 0.01 0.01 0.03 0.05 0.05 0.05 0.04 0.03 0.02
0.02 0.02 0.03 0.05 0.08 0.10 0.10 0.10 0.09 0.10 0.07 0.06 0.04 0.03 0.04 0.05 0.06 0.07 0.09 0.08 0.06 0.08 0.12 0.20 0.21 0.12 0.09 0.09 0.10 0.12 0.07 0.06 0.03 0.02 0.02 0.01 0.02 0.04 0.04 0.04 0.03 0.03 0.02
0.02 0.03 0.02 0.02 0.05 0.08 0.09 0.10 0.12 0.12 0.08 0.05 0.05 0.03 0.03 0.04 0.05 0.06 0.05 0.03 0.04 0.04 0.05 0.06 0.05 0.06 0.07 0.08 0.08 0.10 0.07 0.05 0.02 0.02 0.02 0.01 0.02 0.04 0.04 0.05 0.03 0.03 0.03
0.02 0.03 0.04 0.03 0.04 0.06 0.08 0.09 0.11 0.12 0.10 0.07 0.07 0.05 0.04 0.03 0.02 0.03 0.04 0.04 0.04 0.04 0.06 0.03 0.03 0.04 0.05 0.08 0.09 0.07 0.05 0.03 0.02 0.02 0.03 0.02 0.03 0.05 0.07 0.07 0.04 0.03 0.03
0.02 0.03 0.06 0.04 0.03 0.04 0.06 0.07 0.09 0.09 0.09 0.06 0.04 0.04 0.03 0.02 0.02 0.02 0.05 0.05 0.06 0.08 0.10 0.06 0.08 0.06 0.04 0.04 0.06 0.06 0.03 0.03 0.03 0.02 0.02 0.03 0.05 0.06 0.08 0.09 0.07 0.05 0.06
0.03 0.05 0.04 0.04 0.03 0.04 0.06 0.05 0.06 0.07 0.07 0.06 0.05 0.04 0.03 0.02 0.02 0.01 0.03 0.03 0.05 0.08 0.09 0.08 0.07 0.06 0.04 0.03 0.03 0.03 0.03 0.04 0.04 0.03 0.02 0.04 0.06 0.07 0.10 0.09 0.10 0.09 0.07
0.07 0.06 0.05 0.05 0.04 0.04 0.04 0.04 0.05 0.08 0.07 0.06 0.05 0.04 0.03 0.02 0.02 0.02 0.03 0.02 0.04 0.04 0.06 0.07 0.06 0.06 0.06 0.03 0.02 0.03 0.03 0.03 0.04 0.03 0.03 0.05 0.07 0.07 0.09 0.08 0.10 0.09 0.08
0.08 0.06 0.06 0.04 0.03 0.03 0.03 0.03 0.04 0.07 0.08 0.08 0.04 0.03 0.01 0.01 0.01 0.01 0.02 0.03 0.05 0.04 0.06 0.07 0.06 0.06 0.06 0.04 0.02 0.02 0.03 0.04 0.04 0.04 0.04 0.04 0.05 0.05 0.07 0.08 0.09 0.09 0.08
0.07 0.06 0.05 0.03 0.02 0.02 0.03 0.03 0.04 0.06 0.08 0.08 0.03 0.02 0.01 0.01 0.00 0.01 0.01 0.02 0.05 0.05 0.07 0.08 0.06 0.06 0.07 0.06 0.03 0.02 0.02 0.03 0.04 0.05 0.05 0.06 0.06 0.04 0.05 0.07 0.09 0.09 0.10
0.04 0.07 0.05 0.03 0.03 0.03 0.04 0.04 0.04 0.06 0.08 0.07 0.03 0.02 0.01 0.01 0.01 0.01 0.01 0.02 0.05 0.05 0.09 0.09 0.06 0.05 0.06 0.06 0.03 0.02 0.02 0.03 0.04 0.06 0.05 0.06 0.06 0.05 0.05 0.06 0.09 0.12 0.12
0.04 0.07 0.05 0.03 0.04 0.04 0.04 0.03 0.04 0.07 0.07 0.05 0.02 0.02 0.01 0.01 0.01 0.03 0.03 0.04 0.05 0.05 0.09 0.10 0.07 0.07 0.07 0.06 0.04 0.02 0.02 0.03 0.05 0.06 0.06 0.06 0.06 0.05 0.05 0.05 0.08 0.10 0.11
0.04 0.05 0.03 0.02 0.02 0.03 0.03 0.02 0.05 0.06 0.05 0.03 0.02 0.01 0.01 0.01 0.01 0.03 0.04 0.06 0.06 0.06 0.08 0.08 0.09 0.08 0.06 0.04 0.03 0.02 0.02 0.02 0.04 0.06 0.07 0.08 0.09 0.09 0.07 0.06 0.07 0.08 0.12
0.01 0.01 0.02 0.03 0.03 0.03 0.03 0.03 0.04 0.04 0.03 0.02 0.02 0.01 0.01 0.01 0.02 0.04 0.06 0.06 0.07 0.07 0.08 0.08 0.08 0.06 0.05 0.04 0.03 0.02 0.02 0.02 0.03 0.04 0.05 0.08 0.10 0.10 0.09 0.08 0.06 0.06 0.08
0.01 0.01 0.02 0.03 0.04 0.04 0.04 0.03 0.03 0.03 0.03 0.02 0.03 0.03 0.03 0.03 0.02 0.04 0.06 0.06 0.06 0.07 0.08 0.06 0.05 0.04 0.04 0.05 0.04 0.03 0.02 0.02 0.03 0.04 0.05 0.06 0.07 0.06 0.06 0.06 0.06 0.06 0.06
0.01 0.02 0.02 0.01 0.01 0.02 0.03 0.03 0.03 0.03 0.06 0.07 0.06 0.05 0.04 0.04 0.04 0.04 0.05 0.05 0.07 0.10 0.08 0.06 0.04 0.03 0.02 0.03 0.03 0.02 0.02 0.02 0.03 0.03 0.04 0.04 0.05 0.05 0.06 0.06 0.06 0.05 0.06
0.01 0.02 0.02 0.01 0.01 0.02 0.02 0.02 0.02 0.02 0.05 0.08 0.09 0.08 0.06 0.06 0.05 0.05 0.04 0.03 0.06 0.07 0.05 0.05 0.04 0.03 0.02 0.02 0.03 0.03 0.04 0.02 0.01 0.02 0.02 0.03 0.04 0.05 0.05 0.06 0.06 0.04 0.04
0.02 0.02 0.02 0.02 0.02 0.02 0.02 0.02 0.02 0.02 0.02 0.05 0.07 0.06 0.05 0.06 0.05 0.05 0.05 0.05 0.06 0.05 0.04 0.04 0.05 0.05 0.03 0.02 0.03 0.04 0.04 0.03 0.03 0.04 0.04 0.03 0.04 0.04 0.05 0.06 0.05 0.04 0.03
0.05 0.08 0.06 0.04 0.03 0.03 0.03 0.02 0.01 0.01 0.01 0.02 0.03 0.04 0.04 0.04 0.05 0.05 0.05 0.07 0.08 0.08 0.08 0.07 0.08 0.08 0.06 0.05 0.04 0.05 0.04 0.02 0.02 0.03 0.04 0.05 0.04 0.03 0.04 0.05 0.04 0.04 0.03
0.06 0.07 0.07 0.06 0.06 0.05 0.05 0.03 0.03 0.02 0.02 0.02 0.02 0.02 0.02 0.01 0.02 0.02 0.03 0.04 0.05 0.05 0.04 0.05 0.08 0.09 0.07 0.05 0.04 0.04 0.05 0.04 0.02 0.02 0.02 0.03 0.05 0.06 0.04 0.03 0.03 0.03 0.03
MSLP
1007.43 1007.08 1006.94 1007.04 1007.34 1007.78 1008.29 1008.80 1009.27 1009.68 1010.03 1010.36 1010.72 1011.14 1011.62 1012.17 1012.74 1013.28 1013.74 1014.10 1014.35 1014.50 1014.60 1014.69 1014.81 1014.99 1015.23 1015.50 1015.76 1015.97 1016.10 1016.15 1016.12 1016.04 1015.96 1015.93 1015.96 1016.08 1016.27 1016.51 1016.78 1017.05 1017.30
1007.42 1007.13 1007.04 1007.17 1007.49 1007.94 1008.45 1008.97 1009.45 1009.88 1010.26 1010.64 1011.04 1011.50 1012.01 1012.57 1013.14 1013.67 1014.12 1014.45 1014.68 1014.82 1014.91 1014.99 1015.11 1015.29 1015.52 1015.77 1016.02 1016.22 1016.34 1016.39 1016.36 1016.30 1016.23 1016.21 1016.25 1016.36 1016.54 1016.78 1017.04 1017.31 1017.57
1007.36 1007.14 1007.10 1007.27 1007.60 1008.06 1008.59 1009.13 1009.64 1010.10 1010.54 1010.96 1011.41 1011.89 1012.42 1012.97 1013.51 1014.00 1014.41 1014.72 1014.93 1015.06 1015.16 1015.25 1015.38 1015.56 1015.79 1016.03 1016.26 1016.46 1016.58 1016.64 1016.64 1016.60 1016.57 1016.56 1016.60 1016.71 1016.87 1017.09 1017.34 1017.60 1017.85
1007.31 1007.17 1007.19 1007.38 1007.74 1008.21 1008.74 1009.30 1009.85 1010.36 1010.85 1011.32 1011.81 1012.30 1012.82 1013.33 1013.82 1014.26 1014.62 1014.90 1015.11 1015.25 1015.38 1015.50 1015.66 1015.85 1016.07 1016.31 1016.53 1016.72 1016.85 1016.93 1016.97 1016.97 1016.97 1016.98 1017.03 1017.13 1017.27 1017.45 1017.67 1017.91 1018.16
1007.30 1007.25 1007.34 1007.57 1007.93 1008.40 1008.94 1009.50 1010.08 1010.63 1011.17 1011.69 1012.20 1012.70 1013.19 1013.65 1014.09 1014.47 1014.79 1015.05 1015.26 1015.44 1015.61 1015.78 1015.97 1016.17 1016.40 1016.63 1016.84 1017.02 1017.17 1017.27 1017.35 1017.39 1017.43 1017.47 1017.53 1017.60 1017.71 1017.86 1018.04 1018.25 1018.48
1007.38 1007.44 1007.58 1007.84 1008.20 1008.66 1009.18 1009.74 1010.33 1010.91 1011.48 1012.03 1012.56 1013.06 1013.52 1013.95 1014.33 1014.66 1014.95 1015.21 1015.44 1015.66 1015.88 1016.10 1016.33 1016.56 1016.78 1017.00 1017.19 1017.37 1017.52 1017.65 1017.76 1017.85 1017.93 1018.00 1018.06 1018.12 1018.19 1018.29 1018.42 1018.60 1018.81
1007.57 1007.72 1007.93 1008.21 1008.56 1008.98 1009.47 1010.01 1010.59 1011.18 1011.77 1012.35 1012.90 1013.40 1013.85 1014.24 1014.58 1014.89 1015.16 1015.42 1015.68 1015.94 1016.21 1016.48 1016.74 1016.99 1017.20 1017.40 1017.57 1017.73 1017.88 1018.03 1018.18 1018.32 1018.44 1018.53 1018.60 1018.65 1018.68 1018.73 1018.81 1018.94 1019.13
1007.84 1008.09 1008.36 1008.66 1009.00 1009.38 1009.81 1010.31 1010.86 1011.45 1012.05 1012.65 1013.22 1013.74 1014.19 1014.57 1014.89 1015.17 1015.44 1015.71 1015.99 1016.29 1016.60 1016.90 1017.18 1017.43 1017.63 1017.79 1017.93 1018.07 1018.22 1018.38 1018.56 1018.74 1018.90 1019.02 1019.10 1019.14 1019.14 1019.15 1019.18 1019.27 1019.43
1008.17 1008.52 1008.86 1009.17 1009.49 1009.82 1010.20 1010.64 1011.15 1011.72 1012.34 1012.97 1013.56 1014.11 1014.58 1014.96 1015.28 1015.56 1015.81 1016.08 1016.37 1016.69 1017.02 1017.33 1017.61 1017.84 1018.01 1018.14 1018.25 1018.36 1018.49 1018.66 1018.86 1019.08 1019.28 1019.44 1019.53 1019.57 1019.56 1019.53 1019.52 1019.57 1019.69
1008.52 1008.98 1009.38 1009.72 1010.02 1010.31 1010.63 1011.01 1011.48 1012.03 1012.65 1013.31 1013.95 1014.53 1015.02 1015.43 1015.75 1016.02 1016.27 1016.53 1016.81 1017.11 1017.43 1017.73 1017.99 1018.20 1018.34 1018.43 1018.50 1018.58 1018.70 1018.87 1019.08 1019.33 1019.56 1019.75 1019.87 1019.92 1019.91 1019.86 1019.82 1019.84 1019.93
1008.88 1009.43 1009.90 1010.27 1010.57 1010.82 1011.09 1011.43 1011.86 1012.39 1013.02 1013.70 1014.37 1014.99 1015.53 1015.95 1016.29 1016.55 1016.78 1017.01 1017.26 1017.53 1017.82 1018.09 1018.32 1018.48 1018.59 1018.64 1018.68 1018.73 1018.83 1018.99 1019.22 1019.48 1019.73 1019.96 1020.11 1020.18 1020.18 1020.14 1020.09 1020.09 1020.15
1009.23 1009.88 1010.42 1010.83 1011.13 1011.37 1011.60 1011.90 1012.30 1012.81 1013.44 1014.13 1014.84 1015.49 1016.05 1016.50 1016.84 1017.09 1017.29 1017.48 1017.69 1017.92 1018.16 1018.39 1018.58 1018.71 1018.78 1018.81 1018.81 1018.84 1018.92 1019.06 1019.28 1019.54 1019.81 1020.06 1020.24 1020.35 1020.38 1020.36 1020.32 1020.31 1020.35
1009.61 1010.33 1010.92 1011.37 1011.69 1011.93 1012.15 1012.41 1012.79 1013.28 1013.90 1014.60 1015.31 1015.98 1016.56 1017.01 1017.35 1017.59 1017.77 1017.92 1018.09 1018.27 1018.46 1018.65 1018.80 1018.90 1018.94 1018.94 1018.93 1018.93 1018.98 1019.10 1019.29 1019.53 1019.81 1020.06 1020.27 1020.41 1020.49 1020.50 1020.49 1020.49 1020.52
1010.03 1010.78 1011.42 1011.90 1012.24 1012.49 1012.70 1012.96 1013.31 1013.78 1014.38 1015.05 1015.76 1016.42 1017.00 1017.45 1017.78 1018.01 1018.17 1018.30 1018.43 1018.57 1018.72 1018.87 1019.00 1019.08 1019.10 1019.09 1019.05 1019.02 1019.04 1019.11 1019.26 1019.48 1019.73 1019.98 1020.20 1020.38 1020.49 1020.56 1020.59 1020.61 1020.65
1010.51 1011.26 1011.91 1012.41 1012.77 1013.03 1013.25 1013.51 1013.84 1014.29 1014.85 1015.48 1016.14 1016.78 1017.33 1017.77 1018.10 1018.32 1018.48 1018.59 1018.71 1018.83 1018.96 1019.09 1019.20 1019.26 1019.27 1019.24 1019.18 1019.13 1019.10 1019.13 1019.22 1019.38 1019.59 1019.81 1020.04 1020.24 1020.39 1020.51 1020.58 1020.64 1020.69
1011.06 1011.77 1012.39 1012.89 1013.26 1013.54 1013.79 1014.04 1014.37 1014.78 1015.29 1015.86 1016.46 1017.04 1017.55 1017.97 1018.29 1018.51 1018.68 1018.81 1018.93 1019.05 1019.18 1019.30 1019.40 1019.46 1019.46 1019.42 1019.33 1019.24 1019.17 1019.14 1019.16 1019.25 1019.40 1019.59 1019.79 1019.99 1020.18 1020.33 1020.45 1020.54 1020.61
1011.67 1012.30 1012.87 1013.34 1013.72 1014.02 1014.29 1014.56 1014.87 1015.25 1015.70 1016.20 1016.72 1017.22 1017.67 1018.06 1018.36 1018.60 1018.79 1018.95 1019.10 1019.25 1019.39 1019.52 1019.61 1019.66 1019.65 1019.59 1019.49 1019.37 1019.25 1019.15 1019.11 1019.12 1019.19 1019.32 1019.48 1019.67 1019.86 1020.03 1020.19 1020.31 1020.40
1012.33 1012.84 1013.32 1013.76 1014.13 1014.46 1014.76 1015.06 1015.38 1015.73 1016.12 1016.53 1016.95 1017.36 1017.74 1018.08 1018.37 1018.62 1018.85 1019.05 1019.24 1019.42 1019.58 1019.71 1019.81 1019.85 1019.83 1019.75 1019.63 1019.48 1019.32 1019.18 1019.07 1019.01 1019.00 1019.05 1019.16 1019.30 1019.47 1019.64 1019.80 1019.94 1020.04
1013.01 1013.38 1013.77 1014.15 1014.52 1014.88 1015.22 1015.55 1015.89 1016.21 1016.54 1016.87 1017.18 1017.49 1017.79 1018.07 1018.35 1018.62 1018.87 1019.12 1019.36 1019.57 1019.75 1019.89 1019.98 1020.01 1019.98 1019.89 1019.76 1019.59 1019.41 1019.23 1019.07 1018.94 1018.86 1018.83 1018.86 1018.94 1019.05 1019.19 1019.33 1019.46 1019.56
1013.67 1013.92 1014.21 1014.54 1014.91 1015.30 1015.69 1016.06 1016.41 1016.73 1017.00 1017.24 1017.45 1017.66 1017.87 1018.09 1018.34 1018.61 1018.89 1019.18 1019.45 1019.69 1019.89 1020.03 1020.11 1020.13 1020.09 1020.00 1019.87 1019.71 1019.53 1019.33 1019.14 1018.96 1018.81 1018.70 1018.64 1018.63 1018.66 1018.73 1018.83 1018.92 1019.00
1014.31 1014.44 1014.65 1014.94 1015.31 1015.73 1016.17 1016.58 1016.96 1017.26 1017.49 1017.65 1017.77 1017.87 1017.98 1018.14 1018.35 1018.61 1018.91 1019.22 1019.52 1019.78 1019.99 1020.12 1020.19 1020.20 1020.15 1020.07 1019.96 1019.82 1019.67 1019.49 1019.29 1019.09 1018.88 1018.69 1018.53 1018.41 1018.33 1018.31 1018.32 1018.36 1018.39
1014.90 1014.95 1015.10 1015.36 1015.73 1016.17 1016.65 1017.11 1017.51 1017.80 1017.99 1018.08 1018.10 1018.10 1018.13 1018.21 1018.38 1018.62 1018.92 1019.24 1019.55 1019.82 1020.02 1020.15 1020.21 1020.21 1020.17 1020.11 1020.03 1019.94 1019.84 1019.70 1019.52 1019.30 1019.06 1018.79 1018.53 1018.29 1018.10 1017.96 1017.87 1017.82 1017.79
1015.43 1015.44 1015.55 1015.79 1016.15 1016.61 1017.12 1017.60 1018.01 1018.30 1018.45 1018.47 1018.42 1018.33 1018.28 1018.30 1018.41 1018.62 1018.90 1019.22 1019.53 1019.80 1019.99 1020.11 1020.15 1020.15 1020.13 1020.10 1020.07 1020.05 1020.00 1019.92 1019.78 1019.57 1019.30 1018.98 1018.62 1018.27 1017.95 1017.68 1017.47 1017.33 1017.23
1015.90 1015.90 1015.99 1016.21 1016.56 1017.01 1017.53 1018.02 1018.42 1018.69 1018.81 1018.79 1018.67 1018.52 1018.39 1018.35 1018.41 1018.59 1018.85 1019.15 1019.44 1019.69 1019.87 1019.97 1020.01 1020.02 1020.01 1020.02 1020.05 1020.09 1020.11 1020.10 1020.01 1019.83 1019.54 1019.18 1018.75 1018.30 1017.86 1017.47 1017.14 1016.90 1016.72
1016.28 1016.29 1016.37 1016.57 1016.89 1017.33 1017.82 1018.30 1018.69 1018.95 1019.03 1018.97 1018.81 1018.61 1018.44 1018.35 1018.37 1018.50 1018.73 1019.01 1019.28 1019.50 1019.66 1019.75 1019.78 1019.79 1019.80 1019.85 1019.92 1020.02 1020.11 1020.16 1020.12 1019.97 1019.70 1019.31 1018.83 1018.31 1017.78 1017.29 1016.86 1016.52 1016.27
1016.54 1016.58 1016.65 1016.83 1017.12 1017.52 1017.97 1018.42 1018.78 1019.02 1019.09 1019.01 1018.83 1018.60 1018.40 1018.27 1018.26 1018.36 1018.56 1018.80 1019.04 1019.24 1019.37 1019.44 1019.46 1019.46 1019.48 1019.54 1019.65 1019.79 1019.93 1020.04 1020.05 1019.94 1019.69 1019.30 1018.81 1018.25 1017.67 1017.11 1016.61 1016.19 1015.86
Thickness
5786 5790 5791 5791 5791 5791 5790 5789 5789 5788 5788 5787 5787 5786 5785 5784 5783 5781 5779 5777 5776 5774 5773 5771 5770 5769 5767 5766 5764 5762 5760 5758 5757 5756 5754 5753 5751 5750 5750 5749 5748 5747 5746
5790 5790 5790 5790 5790 5790 5789 5788 5787 5787 5786 5786 5786 5785 5784 5783 5781 5780 5778 5776 5775 5773 5772 5770 5769 5768 5767 5765 5764 5762 5760 5758 5756 5754 5753 5752 5750 5749 5749 5748 5746 5745 5744
5790 5790 5790 5790 5790 5789 5788 5787 5787 5786 5785 5785 5784 5784 5782 5781 5780 5779 5777 5775 5774 5772 5771 5770 5769 5767 5766 5764 5763 5761 5759 5757 5755 5753 5752 5750 5749 5748 5747 5746 5745 5744 5743
5790 5789 5789 5789 5789 5788 5788 5787 5786 5785 5784 5783 5783 5782 5781 5780 5779 5777 5776 5774 5772 5771 5770 5768 5767 5766 5764 5763 5761 5760 5758 5756 5754 5752 5750 5749 5748 5747 5746 5745 5744 5743 5742
5788 5788 5788 5788 5788 5787 5787 5786 5785 5784 5783 5783 5782 5781 5780 5779 5778 5776 5775 5773 5772 5770 5769 5767 5766 5765 5763 5761 5760 5758 5757 5755 5753 5751 5749 5748 5747 5746 5745 5744 5743 5742 5741
5787 5787 5787 5787 5787 5786 5786 5786 5784 5783 5783 5782 5781 5780 5779 5778 5776 5775 5774 5773 5771 5770 5768 5767 5765 5764 5762 5760 5759 5757 5756 5754 5752 5750 5748 5747 5746 5745 5745 5743 5742 5741 5740
5785 5786 5785 5786 5785 5786 5786 5785 5784 5782 5781 5781 5780 5779 5778 5777 5776 5774 5773 5772 5770 5769 5767 5766 5764 5763 5761 5759 5757 5756 5754 5753 5751 5749 5747 5746 5745 5744 5744 5743 5741 5740 5739
5784 5784 5784 5784 5784 5784 5784 5784 5783 5782 5781 5779 5779 5778 5777 5776 5775 5773 5772 5771 5769 5768 5766 5765 5763 5762 5760 5759 5757 5755 5754 5752 5750 5748 5746 5745 5744 5743 5742 5741 5740 5739 5738
5783 5783 5782 5783 5783 5783 5783 5783 5782 5781 5780 5779 5778 5777 5776 5775 5773 5772 5771 5770 5769 5768 5766 5764 5763 5762 5760 5758 5756 5755 5753 5752 5750 5748 5746 5745 5744 5743 5742 5740 5740 5739 5737
5781 5781 5781 5782 5782 5782 5782 5782 5781 5780 5779 5778 5777 5776 5775 5774 5773 5771 5770 5769 5768 5767 5765 5764 5764 5762 5760 5758 5756 5755 5753 5752 5750 5748 5747 5745 5744 5743 5742 5741 5740 5738 5737
5779 5780 5780 5781 5781 5782 5782 5781 5780 5779 5778 5777 5776 5775 5774 5773 5772 5770 5769 5768 5767 5766 5765 5765 5764 5762 5760 5758 5757 5755 5753 5752 5750 5749 5748 5746 5745 5743 5742 5741 5740 5739 5737
5777 5779 5781 5781 5781 5781 5781 5780 5779 5778 5777 5776 5775 5774 5773 5772 5771 5770 5768 5767 5766 5765 5764 5764 5763 5761 5759 5757 5756 5755 5753 5752 5750 5749 5748 5747 5746 5744 5742 5741 5740 5739 5737
5779 5780 5781 5781 5780 5780 5780 5779 5778 5777 5776 5775 5774 5773 5772 5771 5770 5769 5767 5766 5766 5764 5763 5763 5761 5759 5758 5757 5756 5754 5753 5752 5751 5750 5749 5748 5746 5745 5743 5742 5740 5739 5737
5780 5780 5781 5781 5780 5779 5779 5778 5777 5776 5775 5774 5773 5772 5771 5770 5769 5768 5766 5766 5765 5763 5762 5761 5760 5759 5757 5756 5756 5755 5753 5752 5751 5750 5749 5748 5747 5745 5744 5742 5740 5739 5737
5780 5780 5781 5781 5780 5779 5778 5777 5776 5775 5774 5773 5773 5772 5771 5769 5768 5767 5765 5764 5763 5762 5761 5760 5759 5758 5757 5756 5755 5754 5754 5753 5752 5751 5750 5749 5747 5745 5743 5742 5740 5739 5737
5782 5782 5782 5782 5781 5780 5778 5777 5776 5775 5774 5773 5772 5771 5770 5769 5768 5767 5765 5764 5763 5761 5761 5760 5759 5758 5757 5756 5755 5754 5754 5753 5752 5751 5750 5749 5747 5745 5743 5742 5740 5739 5738
5784 5784 5784 5783 5782 5781 5779 5778 5777 5775 5774 5773 5772 5771 5770 5769 5768 5766 5764 5763 5762 5761 5760 5759 5758 5757 5756 5755 5755 5754 5754 5753 5752 5751 5750 5748 5747 5745 5744 5742 5741 5739 5738
5787 5785 5785 5785 5782 5781 5780 5779 5777 5776 5774 5773 5772 5771 5770 5769 5767 5765 5763 5762 5762 5761 5760 5758 5757 5755 5754 5753 5753 5753 5753 5753 5752 5751 5750 5748 5747 5745 5744 5743 5741 5740 5738
5788 5787 5785 5784 5782 5782 5780 5779 5777 5775 5774 5773 5772 5771 5770 5769 5768 5766 5764 5763 5762 5761 5759 5758 5756 5755 5752 5752 5751 5751 5752 5752 5751 5750 5749 5748 5746 5745 5744 5743 5742 5740 5739
5789 5788 5786 5784 5783 5782 5780 5778 5776 5774 5773 5772 5772 5771 5771 5770 5768 5767 5765 5763 5761 5760 5758 5756 5754 5753 5752 5750 5751 5750 5750 5751 5750 5749 5749 5747 5746 5744 5743 5742 5741 5740 5739
5789 5787 5785 5783 5782 5780 5778 5775 5773 5771 5772 5772 5772 5771 5771 5770 5768 5767 5764 5762 5761 5759 5757 5756 5753 5751 5749 5749 5746 5745 5748 5749 5749 5748 5747 5746 5744 5743 5742 5741 5740 5738 5738
5788 5787 5785 5783 5782 5780 5778 5777 5775 5773 5772 5772 5772 5771 5770 5769 5768 5767 5764 5762 5760 5758 5756 5754 5752 5749 5747 5746 5743 5739 5737 5741 5745 5747 5745 5744 5743 5742 5740 5740 5739 5737 5736
5789 5788 5787 5784 5782 5780 5779 5776 5775 5773 5771 5770 5770 5769 5769 5769 5768 5767 5765 5762 5760 5757 5754 5753 5751 5747 5744 5744 5742 5738 5732 5731 5735 5741 5742 5742 5741 5740 5739 5738 5737 5736 5735
5791 5791 5788 5785 5783 5780 5778 5776 5772 5769 5766 5767 5768 5768 5768 5768 5768 5766 5764 5762 5759 5756 5754 5752 5750 5748 5744 5741 5740 5740 5738 5735 5730 5731 5736 5739 5739 5737 5737 5737 5735 5734 5733
5794 5791 5788 5786 5783 5780 5778 5776 5773 5770 5768 5767 5767 5766 5766 5766 5765 5764 5763 5760 5757 5755 5753 5751 5749 5746 5744 5742 5739 5738 5736 5733 5732 5728 5727 5731 5733 5734 5734 5734 5733 5732 5732
5795 5792 5789 5785 5782 5780 5778 5776 5773 5770 5768 5766 5765 5764 5763 5763 5763 5762 5760 5758 5756 5754 5751 5750 5748 5745 5744 5742 5740 5738 5735 5732 5729 5727 5725 5726 5727 5730 5732 5732 5731 5730 5730